Regional Weather Roundup
Issued by NWS Goodland, KS

Home | Current Version | Previous Version | Text Only | Print | Product List | Glossary Off
Versions: 1 2 3 4 5 6 7 8 9 10 11 12 13 14 15 16 17 18 19 20 21 22 23 24 25 26 27 28 29 30 31 32 33 34 35 36 37 38 39 40 41 42 43 44 45 46 47 48 49 50

000
ASUS43 KGLD 010559
RWRGLD

GOODLAND FORECAST AREA HOURLY WEATHER ROUNDUP
NATIONAL WEATHER SERVICE GOODLAND KS
1100 PM MST SAT FEB 28 2015

...OFFICIAL OBSERVATIONS...

CITY           SKY/WX    TMP DP  RH WIND       PRES   REMARKS
GOODLAND KS    CLOUDY    18  15  88 S9        30.13F
HILL CITY KS   CLOUDY    20  15  81 CALM      30.27S
IMPERIAL NEB     N/A     17  10  74 SE7       30.14F
MCCOOK NEB     MOCLDY    22  15  75 S8        30.21S
AKRON CO       PTCLDY    16  13  88 S5        30.03S
BURLINGTON CO  CLOUDY    19  12  74 S9        30.09F
LIMON CO       PTCLDY    10   6  84 SE3       30.00S
$$

...UNOFFICIAL OBSERVATIONS...

CITY           SKY/WX    TMP DP  RH WIND       PRES   REMARKS
COLBY KS       CLOUDY    19  19 100 SE5       30.18F
GOVE KS          N/A     20  32 100 MISG        N/A
LENORA KS        N/A     18  32 100 CALM        N/A
NORTON KS      CLOUDY    19  12  73 S6        30.24S
SHARON SPRINGS   N/A     20  18  90 S7          N/A
KIT CARSON CO    N/A     19  15  83 MISG        N/A
YUMA CO          N/A     16  11  80 CALM        N/A
$$



USA.gov is the U.S. government's official web portal to all federal, state and local government web resources and services.